Wind_Speed
36 37 37 37 36 36 36 36 36 35 37 36 34 31 30 29 30 32 34 35 36 37 39 40 41 42 43 43 44 44 45 46 46 46 47 47 48 48 49 50 52 53 55
39 39 40 40 39 38 38 39 39 40 39 39 38 36 33 33 35 36 37 38 39 41 43 44 44 44 44 44 43 44 45 45 46 47 47 47 49 51 52 53 55 57 59
41 41 42 42 41 40 39 40 42 43 42 41 41 38 37 37 38 38 39 40 42 43 44 44 44 44 45 44 43 43 44 46 47 48 49 49 51 52 55 58 60 61 63
40 42 40 39 38 38 39 42 44 45 46 45 42 39 38 37 37 38 40 41 43 44 45 46 45 46 46 45 45 45 46 48 50 51 52 53 54 55 57 60 62 63 63
41 40 37 36 36 37 41 43 45 48 47 42 40 37 35 36 37 38 40 42 43 45 46 46 47 47 47 48 48 49 50 51 53 55 57 59 60 60 60 60 61 62 63
39 37 35 35 36 39 42 44 47 46 44 42 39 37 36 36 38 39 41 42 44 45 46 47 48 49 49 50 51 52 53 55 57 59 61 62 62 63 62 61 61 62 64
33 33 32 33 36 40 43 45 47 47 46 44 41 39 37 38 40 41 43 44 46 47 48 49 49 50 50 51 53 55 57 59 60 62 62 63 63 63 64 64 65 65 65
28 30 31 33 37 41 44 46 46 46 45 43 41 40 40 41 43 44 45 47 48 49 50 50 51 51 52 54 57 58 60 61 62 63 63 63 64 65 67 67 67 66 66
29 31 33 36 39 42 43 44 43 41 40 40 40 41 43 44 45 47 48 50 52 52 53 54 54 55 57 59 60 62 63 64 63 63 64 66 66 67 67 68 68 68 67
32 34 36 39 41 42 43 42 40 37 37 37 39 42 44 45 47 49 51 53 54 55 56 57 58 59 61 62 63 64 65 64 64 64 65 66 67 68 68 68 69 70 71
35 37 38 40 42 43 42 43 38 34 35 37 40 42 45 47 49 51 53 55 56 57 58 60 62 63 63 64 65 64 63 63 64 65 65 66 66 65 65 67 68 71 73
38 38 40 41 43 44 43 40 35 34 36 39 42 45 47 49 51 53 55 56 58 60 62 64 65 64 63 64 66 64 63 63 62 62 63 61 61 62 64 67 69 71 73
43 42 42 43 44 45 43 40 37 37 39 42 45 48 50 53 54 56 58 60 62 64 65 65 64 63 63 63 62 62 61 60 59 58 57 58 60 62 65 67 69 69 68
43 43 44 45 46 47 44 41 40 40 43 46 49 51 54 56 57 59 62 63 64 65 64 62 61 61 61 62 62 60 58 56 55 55 57 59 61 63 65 65 64 61 57
42 42 42 44 45 46 47 47 46 47 48 50 52 54 56 58 60 61 62 62 62 61 60 60 60 60 60 59 57 55 54 53 54 56 58 59 61 62 62 59 54 50 45
41 41 44 46 48 49 51 51 51 51 51 52 53 55 56 57 58 59 60 59 59 59 59 58 58 57 55 53 52 52 52 53 54 55 57 58 58 56 52 47 44 40 35
49 49 49 50 51 51 52 52 52 52 52 52 52 53 53 53 54 56 56 57 56 56 55 54 54 51 50 49 50 51 52 53 54 54 54 52 49 45 40 37 33 30 26
55 54 53 52 52 52 51 51 51 50 50 50 49 49 50 50 51 52 52 52 52 52 51 50 49 48 48 48 49 50 51 51 51 49 46 42 38 35 30 26 23 20 17
54 53 52 52 51 50 50 49 49 48 47 46 45 45 46 46 47 48 49 49 50 49 47 47 46 47 47 47 47 47 47 46 44 40 37 33 30 26 21 17 14 12 11
50 50 50 50 49 48 47 46 45 43 42 41 41 41 42 44 45 46 46 45 45 44 44 45 45 45 45 44 42 41 40 38 35 32 30 27 23 18 14 11 10 9 8
47 47 47 46 46 45 44 42 40 38 37 37 38 39 40 42 42 42 43 43 43 43 43 43 42 41 39 37 36 34 32 29 27 25 23 20 15 11 9 8 8 8 8
44 43 43 43 42 41 40 38 36 35 36 37 38 39 39 39 39 39 39 40 41 41 40 38 36 34 32 30 29 28 26 23 21 18 15 11 8 7 6 7 7 8 9
40 40 39 39 37 36 34 33 33 34 34 35 36 36 36 37 37 38 38 38 37 36 34 31 29 27 26 25 24 24 22 18 14 10 7 6 6 6 7 7 8 8 10
36 36 35 34 32 31 31 31 32 33 33 32 33 34 35 36 36 36 35 34 32 30 28 26 24 23 23 22 22 21 17 12 7 5 5 6 7 7 7 7 8 9 10
29 28 28 27 27 27 28 29 29 29 30 31 32 33 34 34 33 31 30 28 27 25 24 23 22 21 21 20 18 16 12 7 5 6 7 7 8 8 8 9 9 10 11
21 20 21 22 23 23 24 25 26 28 30 31 31 31 30 29 27 26 25 25 23 22 22 21 20 18 17 15 13 9 4 3 7 8 8 8 9 10 10 10 10 11 12
Wind_Direction
283 287 292 296 299 301 304 305 304 300 298 294 291 287 284 285 288 291 292 293 294 296 298 299 300 298 297 297 294 291 289 289 289 291 291 292 292 291 291 290 290 289 288
281 287 292 295 297 298 300 301 301 297 292 288 286 281 279 281 282 283 285 287 290 292 294 296 297 296 295 296 294 292 290 290 290 291 291 290 291 291 290 289 288 288 287
278 285 289 292 294 295 296 297 296 294 287 285 282 277 276 277 277 279 281 285 287 288 291 294 296 295 295 295 293 292 291 292 292 292 291 290 290 289 289 288 287 287 287
274 279 284 287 290 291 292 293 291 290 287 283 278 277 276 273 276 279 282 284 286 289 293 296 297 296 295 294 293 293 292 292 293 293 292 291 290 289 287 288 289 289 289
268 273 278 283 286 286 287 288 287 287 286 280 280 277 276 277 280 282 284 286 289 292 295 296 296 295 294 294 294 293 293 293 293 293 293 292 291 290 289 288 289 290 290
263 267 274 280 282 281 282 283 286 288 287 286 288 284 283 282 283 285 286 288 290 292 294 294 295 295 294 294 294 294 294 294 294 293 292 292 292 291 291 290 289 290 290
258 264 270 274 274 274 276 279 285 289 291 292 293 289 287 286 286 287 288 290 290 291 292 294 295 295 295 294 294 293 293 293 292 292 292 292 291 291 291 292 291 290 289
258 262 265 267 268 269 273 278 284 288 291 292 291 289 288 287 288 289 290 290 291 292 292 293 295 295 295 295 294 293 292 291 291 291 291 291 291 292 292 292 291 290 288
265 264 265 266 267 270 274 277 282 286 289 289 288 288 287 287 288 289 290 290 291 291 292 293 294 294 296 296 295 293 292 292 292 292 292 291 292 293 293 292 291 290 288
272 272 271 271 271 274 277 279 281 283 286 287 287 287 287 287 287 287 288 289 289 290 292 293 295 296 298 297 296 295 294 293 294 294 295 294 293 293 292 291 291 291 291
273 276 277 277 278 279 281 283 281 284 286 286 286 286 286 286 285 286 287 288 289 291 293 295 297 298 298 298 296 295 297 297 296 295 295 295 294 293 292 292 293 293 293
274 277 278 279 280 282 283 285 284 286 286 285 284 284 284 284 285 286 287 288 290 293 295 296 297 297 296 297 297 297 299 299 298 297 296 295 294 294 295 295 295 295 295
273 275 277 279 282 286 286 286 286 286 284 283 282 282 283 283 284 286 287 289 290 292 294 296 296 296 296 298 300 301 301 300 299 298 296 296 297 297 297 297 296 296 297
272 275 279 281 283 286 288 291 290 288 285 283 282 282 282 283 284 285 287 289 291 293 295 296 298 298 299 300 302 302 301 300 298 298 298 299 299 298 298 298 298 299 299
272 275 279 284 286 288 290 291 291 289 287 286 284 284 283 284 285 287 289 291 293 294 296 297 298 300 302 302 301 300 299 299 300 300 300 300 299 299 299 301 301 301 301
276 281 286 288 289 289 290 290 290 290 288 287 286 286 286 287 288 289 290 292 294 296 297 298 300 301 301 300 299 300 300 301 301 301 300 300 300 301 303 304 304 304 305
285 289 290 289 289 289 289 290 290 289 289 288 288 288 288 288 288 289 291 293 296 297 299 300 301 301 300 301 301 302 303 302 302 301 300 301 303 305 307 307 308 309 311
287 288 288 288 289 290 290 290 290 290 289 289 289 288 288 288 289 291 293 295 297 298 299 300 300 301 302 303 303 303 302 302 301 302 303 305 308 310 312 314 316 318 321
284 286 288 290 291 291 292 292 291 291 290 289 289 289 289 291 292 293 295 296 297 299 300 301 302 303 303 304 303 303 302 303 304 306 308 311 314 316 319 323 328 334 339
284 287 289 290 291 292 292 293 293 292 292 291 291 291 292 293 293 295 297 299 300 302 303 303 304 304 304 304 304 304 304 306 308 310 313 316 320 323 329 336 347 356 5
285 286 288 289 290 291 292 293 293 293 294 294 294 294 295 296 297 298 300 302 303 303 304 304 304 304 304 304 304 306 308 309 310 312 314 317 323 332 343 357 10 18 23
284 285 287 288 290 291 292 293 293 294 294 295 296 297 298 299 301 302 303 304 304 305 305 305 305 306 306 307 309 311 313 314 313 312 315 323 337 354 8 22 29 31 31
284 285 287 289 290 291 292 293 294 295 295 297 298 300 302 304 305 305 305 306 306 306 306 306 307 309 311 312 313 315 317 318 318 320 330 354 21 34 38 40 38 34 27
284 286 287 288 289 290 292 295 296 297 298 300 303 304 306 306 306 306 306 306 306 306 307 307 308 309 311 312 313 317 322 328 341 3 35 51 51 47 43 39 35 30 23
285 286 288 290 292 293 295 297 300 303 304 306 307 307 307 307 306 306 306 307 308 308 307 307 307 306 308 310 312 316 323 340 23 66 69 62 54 47 44 43 40 34 27
287 288 291 293 296 299 302 306 309 309 310 310 310 309 309 309 309 309 310 310 310 310 308 307 305 305 306 309 310 311 325 60 92 87 74 61 52 50 50 49 45 38 34
Height
5863 5862 5862 5862 5862 5862 5861 5860 5858 5855 5852 5850 5849 5848 5848 5846 5845 5843 5841 5839 5838 5836 5834 5831 5829 5826 5824 5821 5819 5816 5813 5810 5808 5806 5804 5800 5796 5792 5788 5785 5781 5777 5773
5857 5856 5855 5855 5856 5856 5855 5853 5851 5848 5845 5843 5841 5840 5840 5839 5838 5835 5833 5831 5830 5828 5825 5823 5820 5817 5814 5811 5809 5806 5803 5800 5797 5795 5793 5790 5787 5781 5777 5773 5768 5765 5760
5852 5851 5850 5850 5850 5849 5848 5846 5843 5840 5835 5833 5831 5831 5831 5830 5829 5827 5825 5823 5821 5819 5816 5813 5810 5808 5805 5802 5799 5796 5793 5789 5786 5783 5780 5777 5774 5771 5766 5760 5755 5751 5746
5846 5846 5845 5845 5844 5843 5841 5838 5836 5832 5828 5823 5820 5821 5821 5821 5820 5818 5817 5815 5812 5809 5806 5804 5801 5798 5795 5792 5788 5785 5782 5779 5774 5770 5767 5764 5760 5757 5753 5747 5740 5735 5730
5841 5840 5840 5839 5838 5836 5834 5831 5828 5824 5818 5814 5812 5812 5812 5812 5811 5810 5808 5806 5804 5801 5798 5794 5791 5788 5784 5781 5778 5774 5771 5767 5763 5758 5753 5749 5744 5740 5737 5734 5728 5720 5714
5834 5834 5833 5833 5831 5829 5827 5824 5820 5815 5810 5806 5806 5806 5805 5805 5803 5802 5800 5798 5796 5792 5789 5785 5781 5777 5774 5770 5766 5762 5758 5754 5749 5744 5739 5734 5729 5724 5719 5716 5712 5707 5701
5827 5827 5826 5825 5824 5822 5819 5816 5813 5809 5806 5802 5800 5800 5799 5798 5796 5794 5792 5790 5787 5783 5780 5775 5772 5768 5764 5759 5755 5751 5746 5741 5736 5730 5725 5719 5714 5708 5703 5699 5694 5690 5685
5819 5819 5818 5817 5815 5813 5810 5808 5806 5802 5799 5797 5795 5793 5791 5790 5788 5786 5783 5780 5777 5773 5769 5765 5761 5757 5753 5749 5744 5739 5733 5728 5722 5716 5710 5705 5698 5692 5686 5680 5675 5671 5667
5812 5811 5810 5808 5806 5804 5802 5800 5798 5795 5792 5790 5787 5785 5783 5781 5779 5776 5773 5770 5766 5762 5758 5754 5749 5745 5740 5735 5729 5724 5718 5712 5707 5701 5695 5689 5682 5676 5668 5661 5654 5650 5647
5805 5804 5802 5800 5797 5795 5793 5791 5789 5787 5785 5782 5780 5777 5775 5772 5769 5766 5762 5758 5754 5750 5745 5740 5736 5731 5725 5720 5714 5708 5702 5696 5690 5684 5678 5671 5665 5658 5651 5643 5636 5628 5622
5798 5797 5794 5792 5790 5788 5785 5782 5780 5778 5776 5774 5771 5768 5765 5762 5759 5755 5751 5746 5742 5737 5732 5727 5722 5716 5710 5704 5698 5692 5687 5681 5675 5668 5662 5655 5648 5641 5633 5625 5617 5608 5599
5789 5788 5786 5784 5782 5779 5777 5773 5771 5769 5767 5765 5762 5759 5755 5752 5748 5743 5739 5734 5729 5723 5718 5713 5708 5702 5695 5689 5683 5677 5672 5665 5659 5652 5645 5638 5631 5623 5615 5607 5598 5588 5578
5781 5779 5777 5775 5773 5770 5767 5765 5762 5761 5758 5755 5752 5748 5744 5740 5736 5731 5726 5721 5716 5711 5706 5700 5694 5687 5681 5675 5669 5662 5656 5650 5643 5636 5629 5622 5614 5607 5598 5589 5580 5570 5560
5771 5769 5768 5766 5763 5761 5758 5755 5753 5750 5747 5744 5740 5736 5732 5728 5723 5718 5713 5708 5702 5697 5691 5685 5679 5673 5666 5660 5654 5647 5641 5635 5628 5621 5614 5606 5598 5590 5582 5572 5563 5554 5546
5760 5759 5758 5756 5753 5751 5748 5745 5742 5739 5735 5731 5727 5723 5719 5714 5709 5704 5698 5693 5687 5682 5677 5671 5665 5659 5653 5646 5639 5633 5627 5621 5614 5606 5598 5591 5582 5574 5565 5557 5549 5541 5534
5749 5748 5747 5745 5743 5740 5737 5734 5730 5726 5722 5718 5714 5709 5705 5700 5695 5689 5684 5678 5673 5668 5663 5657 5651 5645 5639 5632 5626 5619 5613 5607 5600 5592 5584 5576 5568 5560 5552 5544 5537 5530 5524
5739 5737 5736 5734 5732 5728 5725 5721 5717 5713 5709 5705 5700 5696 5691 5686 5681 5676 5670 5665 5660 5654 5649 5644 5638 5632 5626 5619 5613 5606 5600 5592 5585 5578 5571 5563 5556 5549 5543 5536 5529 5523 5517
5727 5725 5723 5721 5718 5715 5712 5708 5704 5700 5695 5691 5687 5682 5677 5672 5668 5663 5658 5653 5647 5642 5637 5631 5626 5620 5613 5607 5600 5593 5586 5579 5572 5565 5559 5553 5547 5540 5535 5529 5523 5519 5514
5716 5714 5711 5709 5706 5702 5699 5695 5691 5686 5682 5678 5674 5669 5664 5660 5655 5650 5646 5641 5635 5630 5624 5619 5613 5607 5601 5595 5588 5581 5574 5567 5561 5555 5550 5545 5539 5534 5529 5525 5521 5517 5514
5705 5703 5700 5698 5694 5691 5687 5683 5678 5674 5670 5666 5662 5657 5653 5648 5644 5639 5634 5628 5623 5617 5612 5607 5601 5595 5589 5583 5577 5570 5564 5558 5552 5548 5543 5538 5534 5530 5526 5523 5520 5517 5514
5696 5693 5690 5687 5684 5680 5676 5672 5667 5663 5659 5655 5651 5646 5642 5637 5632 5627 5622 5616 5611 5606 5601 5595 5590 5584 5578 5572 5567 5562 5556 5552 5547 5543 5539 5535 5531 5528 5526 5523 5520 5518 5515
5685 5683 5680 5677 5674 5670 5666 5662 5658 5654 5649 5645 5641 5636 5631 5626 5621 5616 5611 5606 5601 5595 5590 5584 5579 5574 5569 5564 5559 5555 5550 5547 5543 5539 5536 5533 5530 5528 5526 5524 5521 5519 5517
5675 5673 5670 5667 5664 5660 5657 5653 5649 5645 5640 5635 5630 5625 5621 5616 5611 5606 5601 5596 5590 5585 5580 5575 5571 5566 5562 5558 5554 5550 5546 5543 5540 5537 5534 5532 5530 5529 5527 5525 5523 5521 5519
5665 5663 5661 5658 5655 5651 5648 5644 5640 5636 5631 5626 5621 5616 5611 5606 5601 5596 5591 5586 5581 5577 5572 5568 5564 5560 5557 5553 5549 5546 5543 5540 5538 5536 5534 5533 5532 5530 5529 5527 5525 5523 5521
5657 5654 5652 5649 5647 5644 5640 5636 5632 5628 5623 5618 5613 5608 5603 5597 5592 5587 5583 5578 5574 5570 5566 5562 5559 5555 5552 5549 5546 5543 5541 5539 5537 5537 5536 5535 5534 5532 5530 5529 5527 5525 5523
5650 5648 5646 5643 5640 5637 5633 5629 5625 5620 5615 5610 5605 5600 5594 5589 5584 5580 5575 5571 5567 5563 5560 5556 5553 5550 5548 5545 5543 5541 5540 5539 5539 5538 5538 5537 5535 5534 5532 5531 5530 5528 5525